| time (UTC) | temp F | wind direction | speed MPH | gust MPH | rain 1hr in | rain 24hr in | rain mn in | humidity % | barometer mb |
| 20260901063012 | 47 | 148 | 0.0 | 0.0 | 0.00 | 0.00 | 0.00 | 41 | 1010.7 |
| 20260901061505 | 47 | 148 | 0.0 | 2.0 | 0.00 | 0.00 | 0.00 | 41 | 1010.9 |
| 20260901060001 | 48 | 126 | 0.0 | 0.0 | 0.00 | 0.00 | 0.00 | 40 | 1010.8 |
| 20260901054502 | 49 | 126 | 0.0 | 0.0 | 0.00 | 0.00 | 0.00 | 39 | 1010.8 |
| 20260901053003 | 50 | 126 | 1.0 | 3.0 | 0.00 | 0.00 | 0.00 | 37 | 1011.0 |
| 20260901051608 | 50 | 86 | 0.0 | 1.0 | 0.00 | 0.00 | 0.00 | 36 | 1011.2 |
| 20260901044627 | 51 | 101 | 0.0 | 1.0 | 0.00 | 0.00 | 0.00 | 36 | 1011.1 |
| 20260901043106 | 52 | 100 | 0.0 | 1.0 | 0.00 | 0.00 | 0.00 | 34 | 1011.0 |
| 20260901041559 | 53 | 94 | 0.0 | 1.0 | 0.00 | 0.00 | 0.00 | 32 | 1010.9 |
| 20260901040058 | 55 | 101 | 0.0 | 2.0 | 0.00 | 0.00 | 0.00 | 30 | 1010.7 |
| 20260901034605 | 57 | 360 | 0.0 | 1.0 | 0.00 | 0.00 | 0.00 | 30 | 1010.6 |
| 20260901033058 | 58 | 55 | 0.0 | 2.0 | 0.00 | 0.00 | 0.00 | 27 | 1010.5 |
| 20260901031559 | 59 | 121 | 0.0 | 2.0 | 0.00 | 0.00 | 0.00 | 26 | 1010.4 |
| 20260901030057 | 59 | 117 | 1.0 | 2.0 | 0.00 | 0.00 | 0.00 | 27 | 1010.4 |
| 20260901024603 | 60 | 61 | 0.0 | 1.0 | 0.00 | 0.00 | 0.00 | 26 | 1010.2 |
| 20260901023055 | 62 | 59 | 0.0 | 2.0 | 0.00 | 0.00 | 0.00 | 25 | 1010.0 |
| 20260901021619 | 64 | 57 | 0.0 | 2.0 | 0.00 | 0.00 | 0.00 | 24 | 1010.1 |
| 20260901020111 | 67 | 340 | 0.0 | 1.0 | 0.00 | 0.00 | 0.00 | 21 | 1010.1 |
| 20260901014558 | 71 | 340 | 0.0 | 1.0 | 0.00 | 0.00 | 0.00 | 20 | 1010.2 |
| 20260901013104 | 72 | 340 | 0.0 | 3.0 | 0.00 | 0.00 | 0.00 | 17 | 1010.2 |
| 20260901011553 | 73 | 296 | 0.0 | 1.0 | 0.00 | 0.00 | 0.00 | 17 | 1010.3 |
| 20260901010051 | 73 | 299 | 0.0 | 1.0 | 0.00 | 0.00 | 0.00 | 17 | 1010.5 |
| 20260901004550 | 73 | 232 | 0.0 | 4.0 | 0.00 | 0.00 | 0.00 | 17 | 1010.6 |
| 20260901003052 | 74 | 312 | 2.0 | 4.0 | 0.00 | 0.00 | 0.00 | 17 | 1010.5 |
| 20260901001603 | 73 | 202 | 0.0 | 4.0 | 0.00 | 0.00 | 0.00 | 17 | 1010.8 |
| 20260901000052 | 74 | 317 | 0.0 | 4.0 | 0.00 | 0.00 | 0.00 | 19 | 1011.0 |
| 20260831234600 | 74 | 234 | 1.0 | 6.0 | 0.00 | 0.00 | 0.00 | 17 | 1010.9 |
| 20260831233049 | 74 | 236 | 1.0 | 5.0 | 0.00 | 0.00 | 0.00 | 16 | 1010.8 |
| 20260831231545 | 75 | 192 | 1.0 | 3.0 | 0.00 | 0.00 | 0.00 | 17 | 1010.9 |
| 20260831230043 | 75 | 238 | 1.0 | 4.0 | 0.00 | 0.00 | 0.00 | 16 | 1011.1 |
| 20260831224542 | 75 | 253 | 1.0 | 4.0 | 0.00 | 0.00 | 0.00 | 15 | 1011.3 |
| 20260831223041 | 75 | 155 | 1.0 | 5.0 | 0.00 | 0.00 | 0.00 | 14 | 1011.5 |
| 20260831221541 | 75 | 171 | 1.0 | 6.0 | 0.00 | 0.00 | 0.00 | 15 | 1011.7 |
| 20260831220043 | 76 | 240 | 1.0 | 5.0 | 0.00 | 0.00 | 0.00 | 13 | 1011.9 |
| 20260831214538 | 75 | 176 | 1.0 | 3.0 | 0.00 | 0.00 | 0.00 | 14 | 1012.0 |
| 20260831213038 | 76 | 212 | 2.0 | 7.0 | 0.00 | 0.00 | 0.00 | 15 | 1012.2 |
| 20260831211534 | 75 | 284 | 1.0 | 4.0 | 0.00 | 0.00 | 0.00 | 15 | 1012.4 |
| 20260831210031 | 76 | 194 | 0.0 | 5.0 | 0.00 | 0.00 | 0.00 | 15 | 1012.7 |
| 20260831204527 | 74 | 242 | 1.0 | 5.0 | 0.00 | 0.00 | 0.00 | 13 | 1012.8 |
| 20260831203025 | 73 | 196 | 2.0 | 7.0 | 0.00 | 0.00 | 0.00 | 14 | 1012.9 |
| 20260831201530 | 74 | 240 | 2.0 | 6.0 | 0.00 | 0.00 | 0.00 | 13 | 1013.1 |
| 20260831200024 | 73 | 222 | 1.0 | 4.0 | 0.00 | 0.00 | 0.00 | 12 | 1013.3 |
| 20260831194532 | 73 | 300 | 1.0 | 3.0 | 0.00 | 0.00 | 0.00 | 15 | 1013.4 |
| 20260831193024 | 73 | 315 | 1.0 | 6.0 | 0.00 | 0.00 | 0.00 | 15 | 1013.6 |
| 20260831191514 | 71 | 123 | 0.0 | 6.0 | 0.00 | 0.00 | 0.00 | 14 | 1013.9 |
| 20260831190013 | 70 | 144 | 1.0 | 5.0 | 0.00 | 0.00 | 0.00 | 16 | 1014.2 |
| 20260831184518 | 68 | 162 | 0.0 | 6.0 | 0.00 | 0.00 | 0.00 | 17 | 1014.5 |
| 20260831183004 | 66 | 318 | 0.0 | 3.0 | 0.00 | 0.00 | 0.00 | 19 | 1014.6 |
| 20260831181600 | 64 | 261 | 0.0 | 4.0 | 0.00 | 0.00 | 0.00 | 24 | 1014.8 |
| 20260831180056 | 62 | 231 | 1.0 | 4.0 | 0.00 | 0.00 | 0.00 | 25 | 1015.0 |
| 20260831174605 | 61 | 313 | 2.0 | 5.0 | 0.00 | 0.00 | 0.00 | 28 | 1015.2 |
| 20260831173058 | 59 | 317 | 1.0 | 4.0 | 0.00 | 0.00 | 0.00 | 30 | 1015.3 |
| 20260831171544 | 56 | 319 | 0.0 | 4.0 | 0.00 | 0.00 | 0.00 | 35 | 1015.5 |
| 20260831170040 | 54 | 318 | 1.0 | 4.0 | 0.00 | 0.00 | 0.00 | 36 | 1015.6 |
| 20260831164538 | 51 | 321 | 0.0 | 3.0 | 0.00 | 0.00 | 0.00 | 40 | 1015.7 |
| 20260831163035 | 48 | 308 | 1.0 | 3.0 | 0.00 | 0.00 | 0.00 | 45 | 1016.0 |
| 20260831161527 | 45 | 329 | 0.0 | 3.0 | 0.00 | 0.00 | 0.00 | 52 | 1016.2 |
| 20260831160028 | 43 | 144 | 0.0 | 3.0 | 0.00 | 0.00 | 0.00 | 54 | 1016.4 |
| 20260831154522 | 41 | 144 | 0.0 | 2.0 | 0.00 | 0.00 | 0.00 | 57 | 1016.8 |
| 20260831153020 | 38 | 140 | 0.0 | 3.0 | 0.00 | 0.00 | 0.00 | 59 | 1016.9 |
| 20260831151521 | 36 | 157 | 1.0 | 2.0 | 0.00 | 0.00 | 0.00 | 60 | 1017.1 |
| 20260831150018 | 33 | 157 | 0.0 | 5.0 | 0.00 | 0.00 | 0.00 | 65 | 1017.3 |
| 20260831144527 | 31 | 156 | 2.0 | 4.0 | 0.00 | 0.00 | 0.00 | 68 | 1017.2 |
| 20260831143019 | 28 | 147 | 0.0 | 1.0 | 0.00 | 0.00 | 0.00 | 73 | 1017.3 |
| 20260831141515 | 27 | 137 | 3.0 | 6.0 | 0.00 | 0.00 | 0.00 | 76 | 1017.2 |
| 20260831140012 | 26 | 161 | 0.0 | 0.0 | 0.00 | 0.00 | 0.00 | 74 | 1016.9 |
| 20260831134510 | 26 | 161 | 0.0 | 0.0 | 0.00 | 0.00 | 0.00 | 74 | 1016.6 |
| 20260831133009 | 26 | 161 | 0.0 | 2.0 | 0.00 | 0.00 | 0.00 | 74 | 1016.6 |
| 20260831131508 | 26 | 161 | 0.0 | 0.0 | 0.00 | 0.00 | 0.00 | 74 | 1016.2 |
| 20260831130006 | 26 | 161 | 0.0 | 1.0 | 0.00 | 0.00 | 0.00 | 73 | 1016.1 |
| 20260831124509 | 27 | 161 | 0.0 | 1.0 | 0.00 | 0.00 | 0.00 | 73 | 1016.0 |
| 20260831123002 | 27 | 161 | 0.0 | 0.0 | 0.00 | 0.00 | 0.00 | 72 | 1015.8 |
| 20260831121604 | 27 | 161 | 0.0 | 0.0 | 0.00 | 0.00 | 0.00 | 71 | 1015.7 |
| 20260831120057 | 28 | 161 | 0.0 | 0.0 | 0.00 | 0.00 | 0.00 | 70 | 1015.6 |
| 20260831114554 | 29 | 161 | 0.0 | 1.0 | 0.00 | 0.00 | 0.00 | 68 | 1015.6 |
| 20260831113053 | 29 | 161 | 0.0 | 1.0 | 0.00 | 0.00 | 0.00 | 68 | 1015.6 |
| 20260831111608 | 29 | 161 | 0.0 | 1.0 | 0.00 | 0.00 | 0.00 | 67 | 1015.4 |
| 20260831110117 | 30 | 162 | 0.0 | 0.0 | 0.00 | 0.00 | 0.00 | 66 | 1015.1 |
| 20260831104545 | 31 | 153 | 1.0 | 3.0 | 0.00 | 0.00 | 0.00 | 65 | 1015.1 |
| 20260831103043 | 31 | 149 | 0.0 | 1.0 | 0.00 | 0.00 | 0.00 | 65 | 1014.9 |
| 20260831101542 | 31 | 149 | 0.0 | 0.0 | 0.00 | 0.00 | 0.00 | 65 | 1014.8 |
| 20260831100038 | 31 | 150 | 0.0 | 0.0 | 0.00 | 0.00 | 0.00 | 64 | 1014.8 |
| 20260831094540 | 32 | 142 | 0.0 | 3.0 | 0.00 | 0.00 | 0.00 | 63 | 1014.6 |
| 20260831093033 | 32 | 142 | 0.0 | 1.0 | 0.00 | 0.00 | 0.00 | 62 | 1014.5 |
| 20260831091532 | 32 | 142 | 0.0 | 0.0 | 0.00 | 0.00 | 0.00 | 61 | 1014.4 |
| 20260831090030 | 33 | 142 | 0.0 | 1.0 | 0.00 | 0.00 | 0.00 | 60 | 1014.4 |
| 20260831084538 | 34 | 142 | 0.0 | 1.0 | 0.00 | 0.00 | 0.00 | 59 | 1014.4 |
| 20260831083025 | 35 | 142 | 0.0 | 0.0 | 0.00 | 0.00 | 0.00 | 58 | 1014.3 |
| 20260831081527 | 35 | 142 | 0.0 | 1.0 | 0.00 | 0.00 | 0.00 | 57 | 1014.4 |
| 20260831080020 | 35 | 142 | 0.0 | 0.0 | 0.00 | 0.00 | 0.00 | 57 | 1014.1 |
| 20260831074534 | 35 | 142 | 0.0 | 2.0 | 0.00 | 0.00 | 0.00 | 57 | 1014.0 |
| 20260831073038 | 37 | 142 | 0.0 | 2.0 | 0.00 | 0.00 | 0.00 | 54 | 1014.0 |
| 20260831071512 | 39 | 142 | 0.0 | 0.0 | 0.00 | 0.00 | 0.00 | 51 | 1013.9 |
| 20260831070010 | 39 | 157 | 0.0 | 1.0 | 0.00 | 0.00 | 0.00 | 50 | 1013.8 |
| 20260831064522 | 40 | 157 | 0.0 | 1.0 | 0.00 | 0.00 | 0.00 | 49 | 1013.6 |